Lapse_Rate
1.3 1.3 1.5 1.6 1.4 1.2 1.0 1.1 1.0 0.8 0.9 0.8 1.1 1.2 1.3 1.5 1.8 2.0 2.3 2.7 2.7 3.2 3.3 3.3 3.5 3.4 3.4 3.3 3.0 3.2 4.0 5.2 5.8 6.8 5.3 4.4 4.6 4.4 4.2 3.1 2.8 3.0 3.0
1.0 1.0 1.4 1.3 1.3 1.4 1.7 1.6 1.4 1.3 1.1 0.9 1.1 1.1 1.1 1.2 1.6 1.8 2.1 2.7 2.7 2.7 3.0 3.1 3.2 3.2 2.9 2.8 2.6 2.6 2.8 3.8 4.6 4.7 4.4 4.4 3.7 3.2 3.1 3.5 3.5 2.8 2.6
1.1 1.1 1.3 1.5 1.4 1.5 1.4 1.4 1.6 1.5 1.5 1.6 1.0 1.0 1.3 1.2 1.3 1.4 1.8 2.4 2.5 2.4 2.4 2.3 2.5 2.7 2.6 2.8 2.4 2.1 2.1 2.4 3.1 3.3 3.7 3.4 3.1 2.2 2.6 2.8 3.2 3.0 2.4
0.9 1.0 1.0 1.4 1.2 1.2 1.0 1.1 1.4 1.7 1.5 1.7 1.6 1.2 1.0 1.3 1.2 1.6 1.6 1.9 2.2 2.3 2.1 1.9 2.0 1.9 2.1 2.4 2.1 2.0 2.0 2.0 2.3 2.8 3.1 3.0 2.4 1.8 1.0 2.0 2.9 1.7 2.5
1.3 1.3 1.7 1.5 1.4 1.2 1.2 1.3 1.3 1.3 1.8 1.6 1.4 1.4 1.0 1.0 1.5 1.7 1.8 2.3 2.4 2.3 1.8 1.8 1.4 1.2 1.0 1.7 1.9 2.0 1.6 1.7 1.8 1.6 1.9 1.9 2.2 2.2 2.7 1.9 2.0 1.8 1.4
1.8 2.1 1.9 1.8 1.8 1.9 1.8 1.6 1.3 1.4 1.6 1.8 2.2 2.0 1.6 1.6 1.7 1.9 2.3 2.0 2.0 2.0 2.2 2.0 1.8 1.1 1.3 1.9 2.3 2.0 1.3 1.5 1.8 1.5 1.9 2.1 2.3 2.0 1.3 1.6 1.6 2.3 4.0
1.9 2.1 2.2 2.1 1.8 1.7 1.4 1.1 1.2 1.4 1.2 1.3 1.5 1.6 1.5 1.9 1.9 2.4 2.8 2.7 1.6 1.8 1.8 1.8 1.9 1.5 1.4 1.7 2.5 3.1 2.9 2.5 2.2 2.3 2.2 2.2 2.0 2.2 1.7 1.3 1.3 2.0 2.7
2.0 2.2 2.2 1.9 1.6 1.6 1.2 1.4 1.5 1.2 1.3 1.6 1.8 1.8 1.4 2.0 2.0 2.6 3.0 3.2 2.4 1.9 1.9 2.3 2.7 3.0 2.3 1.9 1.8 1.8 1.9 1.9 2.3 2.7 1.7 2.4 2.3 2.4 1.9 2.3 2.4 2.0 1.1
2.1 2.2 2.1 1.9 1.4 1.4 1.5 1.6 1.7 1.4 1.7 1.9 1.8 1.7 1.7 2.2 1.7 2.3 2.8 2.5 2.0 1.8 1.5 1.9 2.2 2.5 2.3 3.3 2.0 2.2 2.1 1.7 1.9 2.3 1.7 1.4 1.8 2.1 1.7 1.8 2.0 2.5 3.4
2.6 2.6 2.4 2.0 1.5 1.3 1.3 1.3 1.2 1.3 1.4 1.6 1.6 1.9 1.5 1.9 1.6 2.2 2.9 2.4 2.2 2.0 1.9 1.4 1.8 2.6 2.6 3.5 4.3 3.1 2.8 2.9 2.1 2.3 2.7 2.8 2.6 2.8 2.3 2.1 2.8 2.8 3.5
2.7 2.4 2.1 2.0 1.5 1.5 1.0 1.0 0.9 1.1 1.2 1.8 1.6 2.2 2.1 2.0 2.2 2.7 3.2 2.6 2.2 1.9 1.6 1.9 2.1 2.7 3.7 4.3 4.5 4.2 3.5 4.4 3.0 3.2 3.2 3.2 2.3 1.9 2.6 2.1 1.9 2.4 2.6
2.1 1.9 1.9 1.9 1.8 1.8 1.1 1.3 1.6 1.7 1.7 2.2 2.0 2.3 2.8 2.6 2.3 2.8 3.5 4.0 4.0 2.7 2.6 2.9 2.4 2.5 3.3 4.0 4.9 5.2 4.7 4.8 3.3 3.5 3.0 2.9 2.4 1.4 1.4 1.7 1.8 1.7 1.5
1.9 1.9 1.8 1.6 2.0 2.1 1.7 1.8 1.9 2.1 2.3 2.5 2.3 2.5 2.6 2.6 2.8 2.9 3.4 3.9 4.2 4.3 3.8 3.3 3.3 3.6 3.9 4.1 4.6 5.3 5.7 6.0 3.7 3.3 3.1 3.1 2.7 2.8 1.4 1.7 1.4 1.2 0.5
1.8 1.8 2.0 1.9 2.7 2.4 2.2 2.2 2.3 2.8 2.8 2.9 3.0 3.0 2.8 2.3 2.4 3.2 3.1 3.3 3.4 3.8 3.9 4.1 4.4 5.0 5.5 5.1 4.6 4.5 5.0 5.7 4.4 4.1 4.1 3.9 2.4 2.2 2.7 2.1 1.8 1.7 2.3
1.7 1.7 1.8 1.9 2.1 2.1 2.3 2.7 3.2 3.6 3.7 4.4 4.2 3.7 3.7 3.4 4.1 4.6 4.9 4.5 4.2 4.2 5.2 4.2 4.3 4.2 4.0 3.5 3.2 3.6 4.2 4.3 4.7 4.1 4.0 3.4 3.5 3.5 3.3 2.7 2.3 2.2 3.5
1.7 1.8 1.8 2.1 1.9 1.9 2.0 2.5 3.4 4.2 4.8 5.4 5.7 5.5 4.5 4.8 4.6 4.5 4.5 4.6 4.7 5.2 5.2 5.2 5.4 5.1 5.1 4.7 4.4 4.6 4.0 4.6 4.4 4.3 3.9 3.8 4.1 3.9 3.7 2.7 3.4 3.0 3.8
1.4 1.5 1.6 2.0 1.8 2.1 2.4 3.1 3.5 3.4 4.3 4.2 4.7 5.0 5.1 4.6 4.4 4.4 4.4 4.3 4.5 5.0 5.0 5.4 5.9 5.8 5.6 4.9 4.5 4.3 4.7 4.4 4.3 4.3 4.2 4.1 4.0 4.0 4.2 3.4 3.2 3.7 4.2
1.4 2.2 2.4 2.1 1.9 2.2 2.5 3.0 3.4 4.3 4.0 3.7 4.4 5.2 4.6 5.0 5.2 5.1 5.3 5.3 4.3 3.7 3.4 3.8 4.2 4.3 4.1 4.4 4.2 4.6 4.3 4.2 3.7 4.0 4.1 4.3 4.3 4.4 4.3 3.7 3.5 3.7 4.1
1.8 1.7 1.9 2.2 2.2 2.7 3.0 2.9 3.4 3.7 4.1 3.9 3.7 4.0 4.2 5.0 5.7 5.7 5.9 5.3 4.7 3.2 2.7 2.6 2.9 3.2 3.6 3.6 3.5 3.6 3.8 4.0 4.0 3.8 4.0 4.3 4.5 4.7 4.8 4.5 3.9 4.1 4.2
2.0 2.9 3.8 3.2 2.9 2.9 2.9 3.0 3.1 3.7 4.4 4.5 4.2 4.0 3.6 2.8 3.0 3.6 3.8 4.1 4.5 3.8 3.1 2.6 2.5 2.7 2.9 3.2 3.6 3.8 3.7 3.8 3.8 3.9 4.1 4.3 4.6 4.7 5.1 5.0 4.5 4.5 4.6
3.1 3.0 3.9 4.3 3.6 3.4 3.7 3.8 4.1 4.4 5.2 5.1 4.8 4.5 4.4 4.4 4.1 4.1 3.6 3.6 4.4 4.4 3.5 2.9 2.4 2.3 2.4 2.7 3.7 4.2 4.0 4.0 4.0 4.0 4.2 4.6 4.7 5.0 5.1 5.0 4.9 4.9 4.9
4.2 4.1 3.7 3.6 3.7 3.5 3.7 4.1 4.2 4.6 5.4 5.4 5.1 4.8 4.9 4.4 4.0 3.6 3.8 3.6 4.5 5.1 4.4 3.3 2.3 2.1 2.3 3.6 4.2 4.3 4.5 4.6 4.2 4.1 4.8 4.8 4.8 4.9 5.0 5.1 4.9 5.0 4.6
4.5 4.4 4.2 4.0 4.0 4.4 4.5 4.6 4.4 4.8 5.0 5.1 4.7 4.2 3.8 3.4 3.3 2.8 2.9 3.6 4.4 4.7 4.5 4.0 2.8 2.3 2.4 4.0 4.1 4.1 4.7 4.9 4.1 4.0 4.8 5.0 4.7 4.8 5.0 4.9 4.7 4.7 4.6
4.5 4.5 4.4 4.1 4.2 4.3 4.5 4.0 4.1 4.6 5.2 5.2 5.2 5.1 4.2 3.5 3.4 3.1 2.9 3.7 4.1 4.4 4.2 4.1 3.4 2.7 2.8 3.2 4.3 4.2 4.3 4.2 4.3 3.8 4.7 4.9 4.6 4.7 4.5 4.5 4.3 4.3 4.3
4.6 4.3 4.4 4.5 4.3 4.5 4.8 4.6 4.9 5.0 5.0 4.9 4.8 5.1 5.7 5.4 4.2 4.5 3.8 3.8 4.0 4.0 4.0 4.0 3.4 2.8 2.8 3.3 3.6 4.3 4.1 4.5 3.2 3.9 4.4 4.4 4.2 4.0 3.9 4.1 4.0 4.0 4.1
5.3 5.5 5.6 5.7 5.5 5.6 5.5 5.3 5.3 5.2 4.9 4.9 4.8 5.9 6.6 6.4 5.9 5.3 5.3 4.4 4.3 4.1 3.7 3.7 3.3 3.1 2.9 2.7 2.7 3.0 4.7 4.4 4.0 4.1 3.9 4.1 3.9 3.8 3.6 3.7 3.6 3.9 4.2
Wind_Speed
5 6 7 7 7 6 6 7 7 7 7 7 8 9 9 10 9 8 8 8 9 8 7 7 8 6 4 4 3 4 4 4 5 6 2 3 3 3 4 3 2 4 6
6 6 7 7 6 7 7 7 6 8 6 7 8 9 10 10 9 9 9 9 9 9 8 7 9 5 7 5 4 6 5 5 4 9 6 3 3 2 3 3 2 3 4
5 6 7 7 7 8 8 8 8 7 8 8 7 9 10 10 10 10 10 10 10 10 9 9 9 7 8 6 5 5 4 4 5 5 6 3 3 1 2 2 2 1 2
6 6 7 8 7 8 8 7 7 8 8 8 8 9 10 10 10 10 10 11 11 10 10 10 10 9 10 8 6 7 5 5 5 5 6 5 4 2 2 3 3 1 1
7 7 8 8 8 8 7 7 7 7 7 8 9 9 9 8 7 10 10 12 12 12 10 10 10 11 12 11 5 7 6 5 4 5 4 3 3 3 3 0 2 2 2
7 8 8 7 7 8 8 8 8 8 9 8 9 9 9 6 11 15 13 9 10 10 10 9 10 11 13 16 16 14 9 7 7 4 4 5 6 3 2 2 2 2 2
6 7 8 8 8 9 9 9 9 9 9 9 9 8 9 8 12 14 14 10 9 10 9 8 8 7 12 9 14 16 16 16 14 5 7 6 4 4 3 4 5 4 3
6 6 6 7 9 9 8 8 9 7 8 8 8 7 8 6 11 12 12 10 10 10 10 10 10 10 9 10 10 10 10 10 9 7 9 8 7 4 6 2 3 2 1
6 6 7 7 8 8 8 9 8 7 8 7 6 8 8 8 9 10 8 6 8 9 8 9 9 10 11 16 9 11 11 11 10 16 14 13 13 12 9 4 3 3 3
6 8 7 6 6 8 7 8 5 6 8 6 8 6 8 8 9 9 7 4 7 6 6 6 11 12 13 16 12 11 11 11 9 8 9 10 9 8 13 8 3 4 2
7 7 7 6 6 6 6 4 5 7 6 7 7 7 7 7 7 10 8 4 4 6 6 6 5 11 14 15 17 11 12 8 11 8 7 6 5 6 5 5 5 4 3
6 7 6 6 6 5 6 5 6 6 6 7 7 7 4 6 9 9 10 8 7 5 6 6 6 10 12 14 11 17 18 14 5 6 6 7 7 6 6 5 5 5 3
7 7 6 6 5 5 5 6 4 4 5 5 4 6 6 4 5 9 10 9 8 5 5 8 13 12 13 11 14 14 14 8 7 6 7 7 6 5 4 4 4 3 2
8 7 6 6 7 4 3 4 4 4 4 4 5 6 6 6 4 4 4 5 7 6 7 6 7 9 11 9 7 7 5 6 8 8 6 5 5 5 6 5 5 5 3
7 7 7 4 5 5 4 4 4 5 5 4 4 4 5 7 6 10 9 5 5 6 9 3 4 3 4 4 4 5 5 4 6 6 6 6 5 6 6 6 4 5 5
8 6 5 6 5 4 4 6 11 14 14 11 11 8 5 11 15 14 12 11 12 12 5 4 5 5 5 5 4 5 4 8 7 7 7 7 7 7 7 6 6 6 6
7 8 6 7 5 5 5 5 8 6 12 14 11 11 13 15 14 11 12 13 11 9 4 5 5 5 5 4 4 5 6 5 6 6 7 7 7 7 10 7 7 7 7
8 14 7 7 6 6 6 6 6 7 9 8 9 10 11 15 15 13 13 9 5 4 3 4 5 6 6 5 4 5 5 5 5 5 7 7 7 7 7 8 8 8 7
7 6 6 6 6 8 7 6 8 8 9 9 9 8 10 13 14 15 13 5 4 5 4 4 4 5 5 5 5 5 5 5 5 5 6 6 6 6 7 7 8 14 12
7 14 13 7 7 7 6 7 8 8 9 9 9 10 8 4 5 6 5 5 4 5 5 5 4 4 5 5 5 5 5 5 5 5 5 5 6 6 7 7 8 8 8
6 7 13 8 7 7 7 8 7 7 9 9 10 10 17 9 7 8 7 6 6 4 5 5 5 4 4 5 5 5 5 5 5 4 4 5 5 6 6 6 7 7 6
7 8 7 7 7 7 7 7 7 8 9 10 10 11 17 8 8 7 8 7 6 5 4 5 5 4 4 5 5 5 5 5 4 4 4 5 5 6 6 6 6 5 6
8 9 8 8 7 11 9 8 7 7 8 10 11 10 9 8 7 7 7 7 6 5 5 5 5 4 4 5 5 5 5 5 4 3 4 4 5 5 6 6 7 7 7
8 9 9 8 7 7 9 9 7 11 10 11 10 10 9 8 8 6 5 7 6 6 5 5 5 6 5 4 4 3 4 4 2 3 5 4 5 6 5 6 7 8 7
8 8 8 8 8 9 10 10 10 10 9 9 9 9 9 8 7 6 5 5 6 6 6 5 4 5 6 6 5 5 6 8 5 5 3 4 6 8 6 6 7 7 7
9 11 10 10 10 10 10 10 10 9 9 9 8 8 8 6 5 5 5 5 6 6 6 4 5 7 6 5 5 6 8 7 5 8 4 4 6 6 6 7 10 7 9
Wind_Direction
338 328 324 319 318 308 292 286 276 275 269 262 257 252 247 245 239 238 246 255 252 255 249 251 259 254 261 267 262 261 257 250 272 294 299 313 301 306 320 340 36 44 41
320 320 317 313 316 310 302 295 290 279 279 268 264 256 251 246 241 237 241 241 244 248 251 253 259 257 256 255 250 249 247 239 247 279 286 280 256 297 296 305 354 61 48
319 318 315 315 320 315 309 304 301 290 285 281 263 258 256 249 241 236 235 243 242 243 243 242 250 248 255 253 249 250 244 240 229 239 264 264 265 269 276 248 269 294 121
318 316 315 315 313 308 309 310 307 303 293 292 283 271 258 254 245 242 237 239 242 241 239 238 241 236 242 246 245 249 245 242 239 246 261 268 261 243 265 272 265 195 264
320 317 312 311 311 312 313 313 311 307 302 299 297 287 271 255 250 242 239 241 242 244 237 235 233 232 230 234 231 239 232 240 239 242 253 256 261 262 254 241 276 299 246
318 313 312 316 316 312 311 315 311 308 308 305 301 294 288 267 250 245 239 240 239 241 243 238 234 230 235 235 233 230 216 217 232 229 236 244 253 249 218 231 241 257 262
315 315 315 315 317 316 317 320 318 317 313 308 304 301 292 286 272 264 251 243 239 240 238 235 239 224 221 224 235 237 233 228 229 227 244 238 253 225 204 211 217 211 224
313 307 304 312 313 310 311 311 310 312 312 311 311 311 305 299 290 283 270 257 249 248 243 244 246 249 224 215 221 230 229 228 223 222 227 248 242 238 224 254 225 207 269
303 302 306 308 310 314 317 316 310 305 313 307 303 305 303 300 299 292 283 259 256 256 247 248 247 255 238 225 219 232 236 238 227 234 239 242 247 242 215 181 205 196 230
304 304 301 298 303 310 309 312 305 303 303 308 310 305 303 305 311 303 286 265 271 277 274 263 253 253 255 238 226 225 238 241 216 222 233 235 227 214 201 210 201 211 220
297 299 302 305 304 297 308 305 315 319 316 316 316 323 319 315 314 314 304 274 266 278 281 286 272 260 264 255 237 229 231 237 216 217 214 217 206 198 206 203 211 213 205
294 298 298 304 314 315 317 314 318 324 325 321 321 319 312 317 317 314 314 297 273 262 278 282 279 267 264 265 262 246 242 240 213 205 208 206 204 208 206 202 204 201 211
310 309 308 309 305 304 310 313 322 321 322 319 318 313 312 306 312 318 317 310 300 283 269 271 282 284 276 270 263 263 250 233 210 209 215 213 210 207 165 172 183 200 190
295 294 298 301 305 300 298 291 295 306 310 304 310 309 310 309 296 306 308 310 300 295 289 281 275 277 272 261 267 267 255 234 212 220 217 205 163 174 194 190 189 187 217
291 288 287 273 275 291 275 269 270 267 244 278 277 273 294 299 302 310 314 305 293 283 290 264 277 266 276 271 250 249 245 228 223 213 198 186 185 185 198 186 182 183 207
290 288 284 288 283 272 282 290 254 250 260 263 274 277 268 263 294 302 307 307 307 304 289 275 268 258 262 267 256 255 233 240 228 214 209 201 201 197 190 180 190 192 202
270 287 285 282 273 270 270 271 292 285 255 260 263 276 279 285 293 293 303 305 307 314 285 288 270 271 263 242 244 249 251 238 233 219 215 215 209 200 194 187 189 190 202
270 275 277 282 277 278 270 268 262 277 293 299 239 246 268 275 273 275 279 292 292 283 269 272 284 286 276 271 261 256 251 245 226 222 224 222 214 207 198 193 191 194 195
280 277 265 268 268 268 272 271 276 275 276 282 292 271 258 277 269 272 275 260 271 278 270 270 271 284 288 283 269 249 243 243 230 223 222 222 217 207 209 203 196 194 191
267 265 271 268 268 267 263 261 270 273 278 277 279 281 290 282 282 272 243 240 241 257 263 261 263 262 274 281 279 253 245 246 243 230 228 220 216 208 212 199 194 194 195
274 277 274 275 267 267 265 262 257 257 276 275 277 279 281 284 283 280 276 254 251 236 247 260 265 262 266 273 275 263 245 247 238 233 225 227 214 211 207 199 197 199 183
268 273 274 271 274 270 268 265 262 268 275 275 277 278 281 271 270 268 272 267 253 239 223 240 251 250 258 266 269 262 250 245 233 225 229 223 211 207 197 196 187 180 172
259 264 268 269 267 274 276 269 263 266 269 276 279 280 279 275 275 273 276 272 261 241 237 232 242 250 247 258 259 253 248 243 222 203 228 213 201 199 193 186 177 171 171
256 258 260 264 266 268 270 273 268 266 272 276 276 276 275 278 279 273 273 279 266 252 239 235 236 243 252 254 257 250 237 234 213 203 223 206 198 191 181 177 173 171 166
262 261 260 263 268 273 277 272 268 269 270 270 273 273 275 276 268 268 272 273 268 255 243 233 236 239 249 255 252 253 238 244 216 198 200 186 187 171 170 168 163 162 157
271 275 274 276 276 273 272 270 265 264 266 270 270 273 272 262 253 260 266 267 266 258 243 233 236 241 245 252 251 258 258 245 220 200 177 174 170 169 161 161 159 157 154